AAL2978 KOKC-KDFW

Flight info

Callsign AAL2978
Flight time 0h 35m
Altitude 25000
Route MUDDE3 MUDDE RBUKL JOVEM6
Aircraft A20N/M-SDE2E3FGHIRWXY/LB1

Departure

Time 2026-04-30 13:14
Airport OKC Will Rogers World Airport (KOKC)

Arrival

Time 2026-04-30 13:50
Airport Dallas Fort Worth International Airport (KDFW)
Time Latitude Longitude Altitude Speed Heading
2026-04-30 12:54 35.39571 -97.59899 1295 ft 0 kts 181°
2026-04-30 13:04 35.39586 -97.59899 1295 ft 2 kts 180°
2026-04-30 13:04 35.39601 -97.59899 1296 ft 2 kts 180°
2026-04-30 13:04 35.39616 -97.59898 1296 ft 2 kts 193°
2026-04-30 13:04 35.39630 -97.59891 1297 ft 2 kts 226°
2026-04-30 13:05 35.39638 -97.59876 1297 ft 2 kts 258°
2026-04-30 13:05 35.39639 -97.59868 1298 ft 0 kts 271°
2026-04-30 13:06 35.39639 -97.59872 1298 ft 3 kts 271°
2026-04-30 13:07 35.39642 -97.59923 1296 ft 9 kts 274°
2026-04-30 13:07 35.39623 -97.60031 1291 ft 16 kts 247°
2026-04-30 13:07 35.39566 -97.60169 1288 ft 7 kts 247°
2026-04-30 13:07 35.39537 -97.60206 1288 ft 7 kts 191°
2026-04-30 13:08 35.39492 -97.60176 1287 ft 8 kts 137°
2026-04-30 13:08 35.39448 -97.60126 1287 ft 9 kts 137°
2026-04-30 13:08 35.39402 -97.60073 1289 ft 9 kts 136°
2026-04-30 13:08 35.39353 -97.60017 1291 ft 10 kts 136°
2026-04-30 13:09 35.39298 -97.59952 1291 ft 12 kts 136°
2026-04-30 13:09 35.39234 -97.59871 1292 ft 14 kts 123°
2026-04-30 13:09 35.39220 -97.59762 1294 ft 13 kts 95°
2026-04-30 13:09 35.39216 -97.59647 1294 ft 14 kts 89°
2026-04-30 13:10 35.39218 -97.59522 1295 ft 15 kts 88°
2026-04-30 13:10 35.39218 -97.59394 1296 ft 16 kts 92°
2026-04-30 13:10 35.39221 -97.59255 1295 ft 17 kts 81°
2026-04-30 13:10 35.39221 -97.59103 1293 ft 17 kts 74°
2026-04-30 13:11 35.39295 -97.59063 1295 ft 11 kts 11°
2026-04-30 13:11 35.39377 -97.59062 1296 ft 12 kts 358°
2026-04-30 13:11 35.39473 -97.59064 1295 ft 15 kts
2026-04-30 13:11 35.39590 -97.59062 1294 ft 18 kts 359°
2026-04-30 13:12 35.39716 -97.59064 1296 ft 18 kts
2026-04-30 13:12 35.39843 -97.59063 1296 ft 20 kts 360°
2026-04-30 13:12 35.39992 -97.59063 1294 ft 22 kts
2026-04-30 13:13 35.40300 -97.59061 1294 ft 24 kts 359°
2026-04-30 13:13 35.40453 -97.59058 1294 ft 13 kts
2026-04-30 13:13 35.40479 -97.58913 1297 ft 10 kts 129°
2026-04-30 13:14 35.40414 -97.58899 1298 ft 11 kts 181°
2026-04-30 13:14 35.40153 -97.58888 1296 ft 81 kts 174°
2026-04-30 13:14 35.38158 -97.58934 1981 ft 163 kts 179°
2026-04-30 13:15 35.37035 -97.58955 2996 ft 158 kts 172°
2026-04-30 13:15 35.34762 -97.58904 4125 ft 182 kts 178°
2026-04-30 13:15 35.33430 -97.58963 4576 ft 202 kts 179°
2026-04-30 13:16 35.31921 -97.59039 5034 ft 224 kts 179°
2026-04-30 13:16 35.30272 -97.59108 5503 ft 249 kts 179°
2026-04-30 13:16 35.28463 -97.59098 6102 ft 268 kts 172°
2026-04-30 13:17 35.25319 -97.58709 7641 ft 277 kts 172°
2026-04-30 13:17 35.23379 -97.58462 8693 ft 280 kts 173°
2026-04-30 13:17 35.19429 -97.57962 10484 ft 295 kts 175°
2026-04-30 13:18 35.17334 -97.57704 10841 ft 319 kts 176°
2026-04-30 13:18 35.12607 -97.57133 11969 ft 348 kts 177°
2026-04-30 13:18 35.10208 -97.56838 12772 ft 354 kts 178°
2026-04-30 13:19 35.07710 -97.56529 13615 ft 359 kts 179°
2026-04-30 13:19 35.05203 -97.56222 14388 ft 364 kts 179°
2026-04-30 13:19 35.02702 -97.55919 15227 ft 364 kts 180°
2026-04-30 13:19 35.00188 -97.55616 16042 ft 366 kts 180°
2026-04-30 13:20 34.97626 -97.55306 16847 ft 369 kts 181°
2026-04-30 13:20 34.95051 -97.54994 17667 ft 371 kts 181°
2026-04-30 13:20 34.92472 -97.54829 18441 ft 367 kts 188°
2026-04-30 13:20 34.89913 -97.54965 19056 ft 371 kts 190°
2026-04-30 13:21 34.87317 -97.55110 19630 ft 376 kts 190°
2026-04-30 13:21 34.84678 -97.55250 20230 ft 381 kts 190°
2026-04-30 13:21 34.82179 -97.55377 20789 ft 385 kts 191°
2026-04-30 13:22 34.76759 -97.55646 21973 ft 394 kts 191°
2026-04-30 13:22 34.74016 -97.55782 22566 ft 398 kts 191°
2026-04-30 13:22 34.68318 -97.56061 23729 ft 406 kts 192°
2026-04-30 13:23 34.65515 -97.56200 24240 ft 409 kts 192°
2026-04-30 13:23 34.59783 -97.56481 24997 ft 413 kts 193°
2026-04-30 13:24 34.53936 -97.56787 25067 ft 434 kts 193°
2026-04-30 13:24 34.47693 -97.57115 25061 ft 462 kts 192°
2026-04-30 13:25 34.41336 -97.57416 25059 ft 467 kts 192°
2026-04-30 13:25 34.34826 -97.57721 25054 ft 466 kts 192°
2026-04-30 13:26 34.25101 -97.58201 25047 ft 467 kts 192°
2026-04-30 13:26 34.18704 -97.58516 25046 ft 467 kts 192°
2026-04-30 13:27 34.12295 -97.58830 25049 ft 467 kts 192°
2026-04-30 13:28 34.02526 -97.59308 25042 ft 467 kts 192°
2026-04-30 13:28 33.96090 -97.59622 25039 ft 466 kts 192°
2026-04-30 13:28 33.92842 -97.59779 25041 ft 466 kts 192°
2026-04-30 13:29 33.86353 -97.60109 25034 ft 464 kts 193°
2026-04-30 13:29 33.79919 -97.60657 25039 ft 462 kts 194°
2026-04-30 13:30 33.70505 -97.61473 24457 ft 434 kts 194°
2026-04-30 13:31 33.64716 -97.61944 24170 ft 402 kts 194°
2026-04-30 13:31 33.56648 -97.62631 22916 ft 379 kts 195°
2026-04-30 13:32 33.51464 -97.63082 21745 ft 375 kts 194°
2026-04-30 13:32 33.46401 -97.63512 20604 ft 371 kts 193°
2026-04-30 13:33 33.41238 -97.63920 19472 ft 372 kts 188°
2026-04-30 13:33 33.36170 -97.61961 18400 ft 400 kts 150°
2026-04-30 13:34 33.34086 -97.59779 17717 ft 408 kts 140°
2026-04-30 13:34 33.28191 -97.52300 15452 ft 415 kts 138°
2026-04-30 13:35 33.26136 -97.49818 14705 ft 415 kts 139°
2026-04-30 13:35 33.22110 -97.45061 14132 ft 395 kts 139°
2026-04-30 13:36 33.18308 -97.40604 13748 ft 371 kts 140°
2026-04-30 13:36 33.16467 -97.38455 13242 ft 370 kts 140°
2026-04-30 13:36 33.12829 -97.34216 12253 ft 365 kts 139°
2026-04-30 13:37 33.11018 -97.32103 12048 ft 354 kts 139°
2026-04-30 13:37 33.07661 -97.28166 12022 ft 321 kts 139°
2026-04-30 13:38 33.04428 -97.24402 11997 ft 327 kts 140°
2026-04-30 13:38 33.02795 -97.22501 12003 ft 326 kts 140°
2026-04-30 13:38 32.99553 -97.18747 11380 ft 328 kts 143°
2026-04-30 13:39 32.95484 -97.16917 10415 ft 310 kts 183°
2026-04-30 13:39 32.91150 -97.16722 9433 ft 310 kts 181°
2026-04-30 13:40 32.88997 -97.16607 8931 ft 310 kts 181°
2026-04-30 13:40 32.86848 -97.16487 8414 ft 303 kts 180°
2026-04-30 13:40 32.84770 -97.16369 7927 ft 296 kts 180°
2026-04-30 13:40 32.82745 -97.16255 7342 ft 294 kts 179°
2026-04-30 13:41 32.80682 -97.16143 6747 ft 293 kts 178°
2026-04-30 13:41 32.78669 -97.16052 6171 ft 291 kts 179°
2026-04-30 13:41 32.76640 -97.16048 5542 ft 289 kts 179°
2026-04-30 13:41 32.74629 -97.16077 4913 ft 288 kts 179°
2026-04-30 13:42 32.72633 -97.16101 4294 ft 286 kts 178°
2026-04-30 13:42 32.70652 -97.16118 3666 ft 285 kts 177°
2026-04-30 13:42 32.66923 -97.15469 3023 ft 250 kts 145°
2026-04-30 13:43 32.65697 -97.14190 2981 ft 225 kts 123°
2026-04-30 13:43 32.65015 -97.12614 2985 ft 207 kts 104°
2026-04-30 13:43 32.64833 -97.11026 2983 ft 190 kts 88°
2026-04-30 13:43 32.65061 -97.09548 2986 ft 174 kts 71°
2026-04-30 13:44 32.65597 -97.08302 2986 ft 170 kts 58°
2026-04-30 13:44 32.66413 -97.07255 2986 ft 173 kts 44°
2026-04-30 13:44 32.67459 -97.06517 2985 ft 179 kts 28°
2026-04-30 13:44 32.68660 -97.06166 3007 ft 183 kts 12°
2026-04-30 13:45 32.71237 -97.05881 3004 ft 181 kts 16°
2026-04-30 13:45 32.72478 -97.05675 3010 ft 186 kts 12°
2026-04-30 13:45 32.73778 -97.05588 3004 ft 184 kts
2026-04-30 13:46 32.75078 -97.05555 3009 ft 188 kts
2026-04-30 13:46 32.76371 -97.05547 2856 ft 178 kts
2026-04-30 13:46 32.77539 -97.05544 2638 ft 158 kts
2026-04-30 13:46 32.78584 -97.05536 2439 ft 146 kts
2026-04-30 13:47 32.79592 -97.05526 2243 ft 146 kts
2026-04-30 13:47 32.80599 -97.05522 2033 ft 142 kts
2026-04-30 13:47 32.81567 -97.05516 1842 ft 140 kts
2026-04-30 13:47 32.82234 -97.05509 1709 ft 142 kts
2026-04-30 13:48 32.83210 -97.05505 1526 ft 143 kts
2026-04-30 13:48 32.84202 -97.05503 1341 ft 141 kts
2026-04-30 13:48 32.85190 -97.05496 1152 ft 141 kts
2026-04-30 13:48 32.86174 -97.05491 974 ft 142 kts
2026-04-30 13:49 32.87154 -97.05484 783 ft 139 kts
2026-04-30 13:49 32.88107 -97.05496 659 ft 138 kts
2026-04-30 13:49 32.89009 -97.05483 596 ft 118 kts
2026-04-30 13:49 32.89714 -97.05460 615 ft 85 kts 359°
2026-04-30 13:50 32.90154 -97.05457 612 ft 30 kts
2026-04-30 13:50 32.90459 -97.05280 602 ft 24 kts 53°
2026-04-30 13:50 32.90467 -97.05178 601 ft 0 kts 98°
2026-04-30 13:51 32.90467 -97.05174 601 ft 3 kts 96°
2026-04-30 13:51 32.90477 -97.05066 600 ft 17 kts 88°
2026-04-30 13:51 32.90474 -97.04918 599 ft 19 kts 91°
2026-04-30 13:52 32.90472 -97.04811 599 ft 19 kts 89°